Regional Weather Roundup
Issued by NWS Upton, NY

Current Version | Previous Version | Text Only | Print | Product List | Glossary Off
Versions: 1 2 3 4 5 6 7 8 9 10 11 12 13 14 15 16 17 18 19 20 21 22 23 24 25 26 27

000
ASUS41 KOKX 150108
RWROKX

REGIONAL WEATHER ROUNDUP
NATIONAL WEATHER SERVICE NEW YORK NY
800 PM EST THU DEC 14 2017

NOTE: "FAIR" INDICATES FEW OR NO CLOUDS BELOW 12,000 FEET WITH NO
SIGNIFICANT WEATHER AND/OR OBSTRUCTIONS TO VISIBILITY.

NYZ071-072-176-178-NJZ106-104-150200-
NEW YORK CITY METRO AREA

CITY           SKY/WX    TMP DP  RH WIND       PRES   REMARKS
Central Park   CLEAR     26   8  46 NW7G16    30.05R WCI  18
Bronx Bot Gard   N/A     27   7  43 NW7       30.04R WCI  19
Bronx Lehman C NOT AVBL
LaGuardia APRT PTCLDY    28  10  46 NW16      30.04R WCI  16
Queens College NOT AVBL
Kennedy INTL   MOCLDY    26   8  46 NW14      30.05R WCI  14
Breezy Point     N/A    N/A N/A N/A NW13G22     N/A
Brooklyn Coll  NOT AVBL
Staten Island  NOT AVBL
Newark/Liberty CLOUDY    26   6  42 NW9       30.05R WCI  17
Teterboro      CLEAR     25   8  48 NW10      30.04R WCI  15
$$

NYZ177-179-078>081-150200-
LONG ISLAND NEW YORK

CITY           SKY/WX    TMP DP  RH WIND       PRES   REMARKS
Jones Beach      N/A    N/A N/A N/A NW15        N/A
Wantagh        NOT AVBL
Matinecock PT    N/A    N/A N/A N/A NW21G26     N/A
Farmingdale    PTCLDY    25   6  44 NW10      30.03R WCI  15
MacArthur/ISP  MOCLDY    25   8  48 W10       30.01R WCI  15
Shirley        CLOUDY    25   8  48 NW10      30.02R WCI  15
Mt Sinai Harb    N/A    N/A N/A N/A NW15G22     N/A
Westhampton    PTCLDY    23   9  55 W5        30.01R WCI  17
East Hampton   FAIR      27   9  48 NW7G21    29.98R WCI  19
Southold       NOT AVBL
Montauk          N/A     29  10  45 NW13G23   29.98R WCI  19
$$

NYZ052-065-067-150200-
HUDSON VALLEY

CITY           SKY/WX    TMP DP  RH WIND       PRES   REMARKS
White Plains   CLEAR     22   4  46 NW24      29.99R WCI   5
Larchmont Harb   N/A    N/A N/A N/A W13         N/A
Croton On Huds   N/A    N/A N/A N/A NW20G25     N/A
Somers         NOT AVBL
Brewster       NOT AVBL
Newburgh       NOT AVBL
Montgomery     CLEAR     15   3  59 W5        30.02R WCI   8
Otisville      NOT AVBL
Warwick        NOT AVBL
Suffern        NOT AVBL
Poughkeepsie   CLEAR     20   2  45 W12       30.02R WCI   8
Albany         MOCLDY    18   5  57 W10       29.99R WCI   6
$$

NJZ001-105-106-008-010-013-015-019>022-104-150200-
NEW JERSEY

CITY           SKY/WX    TMP DP  RH WIND       PRES   REMARKS
Newark/Liberty CLOUDY    26   6  42 NW9       30.05R WCI  17
Teterboro      CLEAR     25   8  48 NW10      30.04R WCI  15
Caldwell       CLEAR     22   6  50 CALM      30.05R
Somerville     CLOUDY    19  11  70 CALM      30.04R
Linden         FAIR      26   5  42 NW10      30.05R WCI  16
Perth Amboy      N/A    N/A N/A N/A NW10        N/A
Sussex         PTCLDY    16   6  65 CALM      30.02R
Andover        NOT AVBL
Trenton        CLOUDY    25   9  50 CALM      30.04R
Millville      PTCLDY    28  16  60 CALM      30.06R
Atlantic City  CLOUDY    27  17  66 CALM      30.07R
Wrightstown    PTCLDY    26  10  52 NW6       30.03R WCI  19
Toms River     PTCLDY    23  14  68 NW3       30.06R
Belmar         CLOUDY    25  10  53 W6        30.06R WCI  18
$$

PAZ047>061-062-071-150200-
EASTERN PENNSYLVANIA

CITY           SKY/WX    TMP DP  RH WIND       PRES   REMARKS
Philadelphia   MOCLDY    30   8  39 NW6       30.08R WCI  24
Allentown      PTCLDY    22   6  50 CALM      30.03R
Scranton       CLEAR     17   4  56 CALM      30.01R
$$

CTZ002-004>006-009-010-012-RIZ004-006-007-MAZ004-011-015-150200-
SOUTHERN NEW ENGLAND
 IN CT

CITY           SKY/WX    TMP DP  RH WIND       PRES   REMARKS
Bradley INTL   PTCLDY    17   3  54 W7        29.99R WCI   8
Hartford       CLEAR     20   3  48 NW8       30.01R WCI  10
Danbury        CLEAR     21   2  43 NW3       30.00R
Wtrbury/Oxford CLEAR     17   3  54 NW7       29.96R WCI   8
Norwalk Harbor   N/A    N/A N/A N/A W14         N/A
Bridgeport     CLEAR     24   6  46 W10       30.01R WCI  14
Meriden        PTCLDY    19   3  49 N3        30.00R
New Haven      CLEAR     26   6  42 NW8       30.00R WCI  18
Chester        FAIR      19   3  49 NW9       29.96R WCI   9
Groton         PTCLDY    21   5  50 N7        29.98R WCI  12
Wilimantic     CLEAR     19   2  47 NW7       29.99R WCI  10

 IN RI

CITY           SKY/WX    TMP DP  RH WIND       PRES   REMARKS
Providence     CLEAR     20   3  48 W20       29.96R WCI   4
Block Island   CLEAR     24   9  52 NW20G25   29.96R WCI  10
Westerly       PTCLDY    22   4  46 NW9       29.98R WCI  12
 IN MA

CITY           SKY/WX    TMP DP  RH WIND       PRES   REMARKS
Boston         CLEAR     22   2  42 W20G26    29.92R WCI   7
Worcester      CLEAR     13  -2  51 W12       29.87R WCI  -1
Westfield      CLEAR     18   4  54 W12G22    29.96R WCI   5
Provincetown   CLEAR     26  11  52 W22       29.89R WCI  12
Nantucket      CLEAR     25  11  55 W13       29.91R WCI  14
$$

ANZ330-335-338-340-345-350-353-355-150200-
COASTAL MARINE OBSERVATIONS


STATION/POSITION TIME  SKY/WX   TEMP    WIND        PRES    VSBY  WAVE
                                AIR SEA DIR/SP/G                  HT/PER
                 (UTC)          (F)     (DEG/KT/KT) (MB)    (MI)  (FT/S)
NY HARB ENTRANCE 2350            32 51  310/ 21/ 27 1014.9          4/ 4
20 S FIRE ISLAND 2350            33 51  320/ 21/ 29 1014.7          6/ 5
GREAT SOUTH BAY  2345            28 45  310/ 12/ 17   N/A
HUDSON CANYON    2350            38 56  310/ 21/ 27 1014.2          8/ 6
KINGS POINT      0030            27 42  350/ 17/ 19 1017.7
EXECUTION ROCKS  0030            28     290/ 14/ 19   N/A
WESTERN LI SOUND NOT AVBL
CENTRAL LI SOUND NOT AVBL
ROBBINS REEF     0030            27     310/ 15/ 17 1017.6
$$


>>>>>>>>>>>>>>>>>>>>>>>>>>>> KEY <<<<<<<<<<<<<<<<<<<<<<<<<<<
>                                                          <
>     SKY/WX - Sky Condition/Present Weather               <
>     TMP    - Temperature in Fahrenheit                   <
>     DP     - Dew Point in Fahrenheit                     <
>     RH     - Relative Humidity in Percent                <
>     WIND   - Direction (from) and Speed in MPH           <
>     PRES   - Mean Sea Level Pressure (inches of Hg)      <
>     WCI    - Wind Chill Index                            <
>     VSB    - VISIBILITY IN MILES                         <
>     HX     - HEAT INDEX                                  <
>     TC     - TEMPERATURE IN CELSIUS                      <
>     VRB    - VARIABLE WIND DIRECTION                     <
>                                                          <
>>>>>>>>>>>>>>>>>>>>>>>>>>>> KEY <<<<<<<<<<<<<<<<<<<<<<<<<<<




USA.gov is the U.S. government's official web portal to all federal, state and local government web resources and services.